This demonstration page uses our WeatherBlox Daily Observations layout. Learn more.

Hourly Observations for January 22, 2017

Temp ( °F °C ) Dew Point ( °F °C ) Humidity (%) Winds ( mph kmh ) Pressure ( in mb ) Visibility ( mi km ) Precip ( " mm )
12:54 am 00:54 Clear 30 -1.1 29 -1.7 96 96 N 8 13 29.61 1003 10 16.0934 0 0
1:54 am 01:54 Clear 31 -0.6 30 -1.1 96 96 N 6 9 29.63 1003 10 16.0934 0 0
2:54 am 02:54 Clear 31 -0.6 29 -1.7 92 92 N 3 6 29.66 1005 9 14.48406 0 0
3:54 am 03:54 Clear 28 -2.2 28 -2.2 100 100 Calm 29.68 1005 7 11.26538 0 0
4:48 am 04:48 Clear with Mist and Fog 23 -5 21 -6 93 93 Calm 29.74 1007 1.75 2.816345 0 0
4:54 am 04:54 Clear with Mist and Fog 23 -5 22 -5.6 96 96 N 5 7 29.7 1006 1 1.60934 0 0
5:09 am 05:09 Clear with Freezing Fog 23 -5 22 -5.6 96 96 NNW 5 7 29.74 1007 0.5 0.80467 0 0
5:18 am 05:18 Clear with Mist and Fog 25 -4 25 -4 100 100 NNW 5 7 29.74 1007 2 3.21868 0 0
5:25 am 05:25 Clear with Mist and Fog 25 -3.9 25 -3.9 100 100 NNW 7 11 29.74 1007 6 9.65604 0 0
5:54 am 05:54 Clear with Mist and Fog 25 -3.9 24 -4.4 96 96 N 6 9 29.72 1006 6 9.65604 0 0
6:42 am 06:42 Mostly Cloudy 28 -2.2 27 -2.8 96 96 N 5 7 29.77 1008 7 11.26538 0 0
6:54 am 06:54 Cloudy with Mist and Fog 29 -1.7 28 -2.2 96 96 N 5 7 29.75 1007 6 9.65604 0 0
7:54 am 07:54 Cloudy with Mist and Fog 31 -0.6 30 -1.1 96 96 N 9 15 29.78 1008 6 9.65604 0 0
8:35 am 08:35 Cloudy 32 0 29 -1.7 88 88 N 16 26 29.83 1010 9 14.48406 0 0
8:54 am 08:54 Cloudy 32 0 30 -1.1 92 92 N 12 19 29.8 1009 10 16.0934 0 0
9:47 am 09:47 Cloudy 34 1 30 -1 87 87 N 13 20 29.85 1011 8 12.87472 0 0
9:54 am 09:54 Cloudy 33 0.6 30 -1.1 89 89 NNW 9 15 29.83 1010 9 14.48406 0 0
10:02 am 10:02 Cloudy 34 1 30 -1 87 87 NNW 10 17 29.85 1011 9 14.48406 0 0
10:09 am 10:09 Cloudy 34 1.1 30 -1.1 85 85 NNW 10 17 29.85 1011 9 14.48406 0 0
10:17 am 10:17 Cloudy 34 1.1 31 -0.6 89 89 NNW 9 15 29.85 1011 9 14.48406 0 0
10:51 am 10:51 Cloudy 36 2 30 -1 81 81 NNW 10 17 29.88 1012 10 16.0934 0 0
10:54 am 10:54 Cloudy 36 2.2 31 -0.6 82 82 NNW 10 17 29.86 1011 10 16.0934 0 0
11:47 am 11:47 Cloudy 37 3 30 -1 75 75 NNW 16 26 29.85 1011 10 16.0934 0 0
11:54 am 11:54 Cloudy 37 2.8 31 -0.6 79 79 NNW 15 24 29.85 1011 10 16.0934 0 0
12:24 pm 12:24 Cloudy 37 2.8 31 -0.6 79 79 NW 15 24 29.85 1011 10 16.0934 0 0
12:54 pm 12:54 Cloudy 36 2.2 31 -0.6 82 82 NNW 15 24 29.85 1011 10 16.0934 0 0
1:54 pm 13:54 Cloudy 38 3.3 32 0 79 79 NW 15 24 29.85 1011 10 16.0934 0 0
2:50 pm 14:50 Mostly Cloudy 39 4 32 0 75 75 NNW 13 20 29.85 1011 10 16.0934 0 0
2:54 pm 14:54 Partly Cloudy 40 4.4 33 0.6 77 77 NNW 12 19 29.86 1011 10 16.0934 0 0
3:54 pm 15:54 Mostly Sunny 39 3.9 32 0 76 76 NNW 10 17 29.88 1012 10 16.0934 0 0
4:54 pm 16:54 Sunny 39 3.9 32 0 76 76 NNW 6 9 29.9 1012 10 16.0934 0 0
5:54 pm 17:54 Clear 36 2.2 31 -0.6 82 82 NW 3 6 29.91 1013 10 16.0934 0 0
6:54 pm 18:54 Clear 32 0 29 -1.7 88 88 W 3 6 29.93 1013 10 16.0934 0 0
7:54 pm 19:54 Clear 30 -1.1 28 -2.2 92 92 Calm 29.93 1014 10 16.0934 0 0
8:54 pm 20:54 Clear 28 -2.2 26 -3.3 92 92 Calm 29.93 1014 9 14.48406 0 0
9:34 pm 21:34 Clear with Mist and Fog 26 -3.3 25 -3.9 96 96 Calm 30 1016 1.5 2.41401 0 0
9:42 pm 21:42 Clear with Freezing Fog 26 -3.3 25 -3.9 96 96 Calm 30 1016 0.5 0.80467 0 0
9:45 pm 21:45 Clear with Mist and Fog 26 -3.3 25 -3.9 96 96 N 3 6 30 1016 5 8.0467 0 0
9:54 pm 21:54 Clear with Mist and Fog 26 -3.3 25 -3.9 96 96 NNE 3 6 29.94 1014 5 8.0467 0 0
10:04 pm 22:04 Clear with Mist and Fog 27 -3 27 -3 100 100 Calm 30 1016 2 3.21868 0 0
10:11 pm 22:11 Clear with Mist and Fog 27 -2.8 26 -3.3 96 96 NW 3 6 29.97 1015 6 9.65604 0 0
10:54 pm 22:54 Clear with Mist and Fog 25 -3.9 24 -4.4 96 96 N 6 9 29.95 1014 6 9.65604 0 0
11:54 pm 23:54 Clear 24 -4.4 22 -5.6 91 91 N 5 7 29.96 1014 7 11.26538 0 0

Powered by AerisWeather